Freeport, IL

1:31 AM CDT on March 24, 2017 (GMT -0500)
Albertus

Weather History for KFEP - December, 2013

Change the Weather History Date:

Thursday, December 5, 2013

  Actual Average Record
Temperature  
Mean Temperature 26 °F -  
Max Temperature 33 °F 34 °F 66 °F (2001)
Min Temperature 18 °F 18 °F -3 °F (1991)
Degree Days  
Heating Degree Days 40    
Moisture  
Dew Point 16 °F    
Average Humidity 77    
Maximum Humidity 92    
Minimum Humidity 66    
Precipitation  
Precipitation 0.00 in - - ()
Sea Level Pressure  
Sea Level Pressure 30.05 in    
Wind  
Wind Speed 16 mph (West)    
Max Wind Speed 25 mph    
Max Gust Speed 34 mph    
Visibility 10 miles    
Events      
Averages and records for this station are not official NWS values.
T = Trace of Precipitation, MM = Missing Value Source: NWS Daily Summary

Daily Weather History Graph

Daily Weather History Graph

Search for Another Location

Airport or City:

Trip Planner

Search our weather history database for the weather conditions in past years. The results will help you decide how hot, cold, wet, or windy it might be!

Date:

Astronomy

Dec. 05, 2013 Rise Set
Actual Time 7:11 AM CST 4:26 PM CST
Civil Twilight 6:40 AM CST 4:57 PM CST
Nautical Twilight 6:05 AM CST 5:32 PM CST
Astronomical Twilight 5:31 AM CST 6:06 PM CST
Moon 9:30 AM CST (12/5) 7:48 PM CST (12/5)
Length of Visible Light 10h 17m
Length of Day
9h 14m
Waxing Crescent, 11% of the Moon is Illuminated
Dec 5
Waxing Crescent
Dec 9
First Quarter
Dec 17
Full
Dec 25
Last Quarter
Jan 1
New

Hourly Weather History & Observations

Time (CST) Temp. Windchill Dew Point Humidity Pressure Visibility Wind Dir Wind Speed Gust Speed Precip Events Conditions
12:15 AM 33.8 °F 23.2 °F 31.8 °F 92% 29.72 in 10.0 mi WSW 17.3 mph 24.2 mph N/A   Overcast
12:35 AM 31.5 °F 19.8 °F 29.1 °F 91% 29.72 in 10.0 mi West 18.4 mph 25.3 mph N/A   Overcast
12:55 AM 31.5 °F 20.1 °F 28.9 °F 90% 29.75 in 10.0 mi WSW 17.3 mph 27.6 mph N/A   Overcast
1:15 AM 31.5 °F 19.1 °F 28.9 °F 90% 29.76 in 10.0 mi West 20.7 mph 25.3 mph N/A   Overcast
1:35 AM 30.9 °F 20.2 °F 28.2 °F 90% 29.76 in 10.0 mi West 15.0 mph 23.0 mph N/A   Overcast
1:55 AM 29.5 °F 18.4 °F 26.6 °F 89% 29.78 in 10.0 mi West 15.0 mph 20.7 mph N/A   Overcast
2:15 AM 28.8 °F 16.6 °F 25.7 °F 88% 29.78 in 10.0 mi West 17.3 mph 23.0 mph N/A   Overcast
2:35 AM 28.8 °F 16.2 °F 25.3 °F 87% 29.79 in 10.0 mi WSW 18.4 mph 21.9 mph N/A   Overcast
2:55 AM 28.4 °F 15.4 °F 25.0 °F 87% 29.82 in 10.0 mi West 19.6 mph 29.9 mph N/A   Overcast
3:15 AM 27.5 °F 13.9 °F 23.9 °F 86% 29.83 in 10.0 mi West 20.7 mph 28.8 mph N/A   Overcast
3:35 AM 27.1 °F 13.8 °F 23.7 °F 87% 29.85 in 10.0 mi West 19.6 mph 27.6 mph N/A   Overcast
3:55 AM 26.6 °F 13.4 °F 23.4 °F 88% 29.84 in 10.0 mi West 18.4 mph 23.0 mph N/A   Overcast
4:15 AM 26.6 °F 13.8 °F 23.0 °F 86% 29.87 in 10.0 mi West 17.3 mph 27.6 mph N/A   Overcast
4:35 AM 26.2 °F 13.0 °F 23.0 °F 88% 29.86 in 10.0 mi West 18.4 mph 25.3 mph N/A   Overcast
4:55 AM 26.2 °F 12.6 °F 22.8 °F 87% 29.88 in 10.0 mi West 19.6 mph 24.2 mph N/A   Overcast
5:15 AM 26.2 °F 14.2 °F 22.6 °F 86% 29.89 in 10.0 mi West 15.0 mph 24.2 mph N/A   Overcast
5:35 AM 26.2 °F 13.8 °F 22.1 °F 84% 29.89 in 10.0 mi West 16.1 mph 28.8 mph N/A   Overcast
5:55 AM 25.2 °F 9.8 °F 19.2 °F 78% 29.91 in 10.0 mi West 24.2 mph 32.2 mph N/A   Mostly Cloudy
6:15 AM 23.7 °F 7.5 °F 17.6 °F 77% 29.93 in 10.0 mi West 25.3 mph 34.5 mph N/A   Scattered Clouds
6:35 AM 23.7 °F 9.7 °F 18.9 °F 82% 29.94 in 10.0 mi West 18.4 mph 27.6 mph N/A   Mostly Cloudy
6:55 AM 23.0 °F 8.7 °F 17.8 °F 80% 29.95 in 10.0 mi West 18.4 mph 28.8 mph N/A   Overcast
7:15 AM 21.2 °F 7.3 °F 15.8 °F 80% 29.97 in 10.0 mi West 16.1 mph 25.3 mph N/A   Scattered Clouds
7:35 AM 19.9 °F 5.2 °F 14.2 °F 78% 29.98 in 10.0 mi West 17.3 mph 27.6 mph N/A   Scattered Clouds
7:55 AM 19.9 °F 6.2 °F 14.7 °F 80% 29.99 in 10.0 mi West 15.0 mph 21.9 mph N/A   Mostly Cloudy
8:15 AM 19.6 °F 6.8 °F 14.0 °F 79% 30.01 in 10.0 mi West 12.7 mph 23.0 mph N/A   Scattered Clouds
8:35 AM 19.4 °F 6.0 °F 14.7 °F 82% 30.02 in 10.0 mi West 13.8 mph 19.6 mph N/A   Scattered Clouds
8:55 AM 18.5 °F 2.9 °F 12.7 °F 78% 30.03 in 10.0 mi West 18.4 mph 23.0 mph N/A   Scattered Clouds
9:15 AM 18.7 °F 4.0 °F 13.1 °F 79% 30.05 in 10.0 mi West 16.1 mph 24.2 mph N/A   Scattered Clouds
9:35 AM 19.9 °F 5.2 °F 13.6 °F 77% 30.06 in 10.0 mi West 17.3 mph 21.9 mph N/A   Scattered Clouds
9:55 AM 21.2 °F 8.3 °F 14.5 °F 75% 30.06 in 10.0 mi West 13.8 mph - N/A   Mostly Cloudy
10:15 AM 20.8 °F 6.8 °F 14.0 °F 75% 30.06 in 10.0 mi West 16.1 mph - N/A   Scattered Clouds
10:35 AM 21.2 °F 6.4 °F 14.0 °F 74% 30.07 in 10.0 mi West 18.4 mph 24.2 mph N/A   Scattered Clouds
10:55 AM 21.6 °F 9.3 °F 14.2 °F 73% 30.07 in 10.0 mi West 12.7 mph - N/A   Scattered Clouds
11:15 AM 21.9 °F 8.2 °F 14.0 °F 72% 30.07 in 10.0 mi WNW 16.1 mph - N/A   Clear
11:35 AM 21.9 °F 7.8 °F 13.6 °F 70% 30.07 in 10.0 mi West 17.3 mph 23.0 mph N/A   Clear
11:55 AM 22.3 °F 7.8 °F 13.6 °F 69% 30.08 in 10.0 mi West 18.4 mph 24.2 mph N/A   Clear
12:15 PM 23.7 °F 10.1 °F 15.3 °F 70% 30.08 in 10.0 mi West 17.3 mph 21.9 mph N/A   Clear
12:35 PM 23.4 °F 10.6 °F 14.5 °F 69% 30.08 in 10.0 mi West 15.0 mph 21.9 mph N/A   Clear
12:55 PM 23.5 °F 9.4 °F 14.4 °F 68% 30.09 in 10.0 mi West 18.4 mph 23.0 mph N/A   Clear
1:15 PM 22.1 °F 8.5 °F 13.5 °F 69% 30.09 in 10.0 mi West 16.1 mph 20.7 mph N/A   Clear
1:35 PM 23.7 °F 12.1 °F 14.4 °F 67% 30.09 in 10.0 mi WNW 12.7 mph 20.7 mph N/A   Clear
1:55 PM 23.7 °F 11.5 °F 14.4 °F 67% 30.09 in 10.0 mi West 13.8 mph 21.9 mph N/A   Clear
2:15 PM 22.1 °F 10.0 °F 12.4 °F 66% 30.10 in 10.0 mi West 12.7 mph 21.9 mph N/A   Clear
2:35 PM 22.1 °F 8.0 °F 12.9 °F 68% 30.10 in 10.0 mi West 17.3 mph 21.9 mph N/A   Clear
2:55 PM 22.8 °F 9.9 °F 13.3 °F 67% 30.11 in 10.0 mi WNW 15.0 mph 19.6 mph N/A   Clear
3:15 PM 22.1 °F 10.0 °F 12.6 °F 67% 30.11 in 10.0 mi West 12.7 mph 20.7 mph N/A   Clear
3:35 PM 22.1 °F 8.9 °F 12.9 °F 68% 30.14 in 10.0 mi West 15.0 mph 18.4 mph N/A   Clear
3:55 PM 21.6 °F 10.6 °F 12.4 °F 68% 30.13 in 10.0 mi West 10.4 mph - N/A   Clear
4:15 PM 21.2 °F 9.5 °F 12.2 °F 68% 30.15 in 10.0 mi West 11.5 mph - N/A   Clear
4:35 PM 21.2 °F 8.9 °F 12.7 °F 70% 30.16 in 10.0 mi West 12.7 mph 17.3 mph N/A   Clear
4:55 PM 21.2 °F 9.5 °F 12.7 °F 70% 30.16 in 10.0 mi West 11.5 mph - N/A   Clear
5:15 PM 21.2 °F 11.7 °F 13.1 °F 71% 30.18 in 10.0 mi West 8.1 mph - N/A   Clear
5:35 PM 21.2 °F 10.1 °F 13.1 °F 71% 30.19 in 10.0 mi West 10.4 mph - N/A   Clear
5:55 PM 21.2 °F 8.3 °F 13.3 °F 72% 30.20 in 10.0 mi West 13.8 mph - N/A   Clear
6:15 PM 20.1 °F 6.4 °F 12.0 °F 71% 30.21 in 10.0 mi West 15.0 mph 20.7 mph N/A   Clear
6:35 PM 19.9 °F 7.3 °F 12.2 °F 72% 30.21 in 10.0 mi West 12.7 mph 18.4 mph N/A   Clear
6:55 PM 19.9 °F 5.7 °F 12.6 °F 73% 30.22 in 10.0 mi West 16.1 mph 20.7 mph N/A   Clear
7:15 PM 19.9 °F 6.7 °F 12.9 °F 74% 30.22 in 10.0 mi West 13.8 mph 18.4 mph N/A   Clear
7:35 PM 19.6 °F 6.2 °F 12.9 °F 75% 30.22 in 10.0 mi West 13.8 mph 19.6 mph N/A   Clear
7:55 PM 19.8 °F 9.1 °F 12.7 °F 74% 30.23 in 10.0 mi West 9.2 mph 17.3 mph N/A   Clear
8:15 PM 19.2 °F 7.7 °F 12.6 °F 75% 30.23 in 10.0 mi WNW 10.4 mph - N/A   Clear
8:35 PM 19.0 °F 9.0 °F 12.2 °F 75% 30.24 in 10.0 mi WNW 8.1 mph 16.1 mph N/A   Clear
8:55 PM 18.5 °F 8.4 °F 12.2 °F 76% 30.25 in 10.0 mi WNW 8.1 mph - N/A   Clear
9:15 PM 18.5 °F 6.1 °F 12.0 °F 76% 30.24 in 10.0 mi WNW 11.5 mph 17.3 mph N/A   Clear
9:35 PM 18.5 °F 7.5 °F 12.0 °F 76% 30.24 in 10.0 mi WNW 9.2 mph 17.3 mph N/A   Clear
9:55 PM 18.5 °F 7.5 °F 12.2 °F 76% 30.25 in 10.0 mi WNW 9.2 mph - N/A   Clear
10:15 PM 18.5 °F 9.3 °F 12.7 °F 78% 30.26 in 10.0 mi WNW 6.9 mph - N/A   Clear
10:35 PM 18.5 °F 7.5 °F 12.7 °F 78% 30.26 in 10.0 mi NW 9.2 mph - N/A   Clear
10:55 PM 18.5 °F 6.8 °F 12.0 °F 76% 30.28 in 10.0 mi WNW 10.4 mph - N/A   Clear
11:15 PM 18.5 °F 6.8 °F 11.8 °F 75% 30.28 in 10.0 mi NW 10.4 mph 18.4 mph N/A   Clear
11:35 PM 18.5 °F 7.5 °F 12.2 °F 76% 30.28 in 10.0 mi NW 9.2 mph - N/A   Clear
11:55 PM 18.5 °F 6.1 °F 12.2 °F 76% 30.28 in 10.0 mi NW 11.5 mph 16.1 mph N/A   Clear